This is the latest recevied weather packets stored in our database for station/object CW79215. If no packets are shown the sender has not sent any weather packets the latest 10 day(s).
| Time | Temp. | Humidity | Pressure | Rain* | Wind** | Luminosity | Snow |
|---|---|---|---|---|---|---|---|
| 1788530743 | 30° C | 31% | 1026 hPa | - | - | - | - |
| 1788529843 | 30° C | 32% | 1026 hPa | - | - | - | - |
| 1788528943 | 30.56° C | 31% | 1026 hPa | - | - | - | - |
| 1788528043 | 30° C | 32% | 1026.4 hPa | - | - | - | - |
| 1788527143 | 30° C | 32% | 1026.5 hPa | - | - | - | - |
| 1788526243 | 30° C | 32% | 1026.8 hPa | - | - | - | - |
| 1788525343 | 30.56° C | 31% | 1027.1 hPa | - | - | - | - |
| 1788524442 | 30.56° C | 31% | 1027.3 hPa | - | - | - | - |
| 1788523542 | 30° C | 32% | 1027.4 hPa | - | - | - | - |
| 1788522642 | 29.44° C | 33% | 1027.6 hPa | - | - | - | - |
| 1788521742 | 29.44° C | 32% | 1027.7 hPa | - | - | - | - |
| 1788520842 | 29.44° C | 32% | 1027.8 hPa | - | - | - | - |
| 1788519942 | 28.89° C | 32% | 1028.1 hPa | - | - | - | - |
| 1788519042 | 28.89° C | 32% | 1028.2 hPa | - | - | - | - |
| 1788518142 | 28.89° C | 33% | 1028.5 hPa | - | - | - | - |
| 1788517242 | 28.33° C | 35% | 1028.5 hPa | - | - | - | - |
| 1788516342 | 27.78° C | 34% | 1028.9 hPa | - | - | - | - |
| 1788515441 | 27.78° C | 34% | 1029.1 hPa | - | - | - | - |
| 1788514541 | 28.89° C | 31% | 1029.3 hPa | - | - | - | - |
| 1788513641 | 27.22° C | 34% | 1029.2 hPa | - | - | - | - |
| 1788512741 | 27.78° C | 34% | 1029.4 hPa | - | - | - | - |
| 1788511840 | 27.22° C | 36% | 1029.4 hPa | - | - | - | - |
| 1788510943 | 27.22° C | 37% | 1029.5 hPa | - | - | - | - |
| 1788510042 | 26.67° C | 37% | 1029.6 hPa | - | - | - | - |
| 1788509142 | 26.11° C | 38% | 1029.7 hPa | - | - | - | - |
* Rain since midnight (hover to see other rain measurements)
** Current wind speed in m/s (hover to see current wind gust speed)